STARLINK-32478, 61726

Orbit data source: Space-Track

STARLINK-32478, 61726 is a payload satellite owned by SpaceX/Seattle (US) in LEO that was launched on Wed, 30 Oct 2024 UTC via an FALCON 9 launch vehicle from the Air Force Eastern Test Range (AFETR). Payload-class satellites include a variety of spacecraft equipped with specific instruments for various scientific and technological missions. These include communications satellites like Starlink; space stations such as the ISS; scientific satellites like the Hubble; Earth observation satellites from companies like Planet Labs, Umbra, and HawkEye 360; GPS; miniature CubeSats for education and research; and military/defense satellites.

Loading next visibility...
Identifier
61726, 2024-196V
Orbit
LEO
Country
Flag of USUS
Related business
Manufacturer
SpaceX/Seattle
Mission
Operational Commercial Communications
Bus & Motor
STARLINK V2M, Unknown motor
Mass
730 kg wet, ~700 kg dry
Launch date (UTC)
2024-10-30 (2 years ago)
Launch vehicle
FALCON 9
Launch site
Air Force Eastern Test Range (AFETR)
Object type
Payload
Rocket body
Debris
Shape & HBR
Box + 2 Pan, 17.7 m
Radar Cross Section
33.884 m², Large (>1 m²)

Expand to show TLE details & history
Last TLE update: 1 day ago

TLE from 1 day ago
0 STARLINK-32478
1 61726U 24196V   26257.15951408  .00000330  00000-0  20916-4 0  9997
2 61726  53.1615 303.6861 0001212  87.7868 272.3274 15.34390949106047
Epoch: 2026-09-14T03:49Z
TLE epoch observation values (Epoch: 2026-09-14T03:49:42.016Z)
Latitude
0.00003°
Longitude
-106.88276°
Altitude
463.598 km
Speed
7.636 km/s
True Right ascension
20h 14m 44s
True Declination
0° 00' 00"
Sunlit
Object was in full shadow at epoch
Visualization orbit readout
Latitude
Unknown
Longitude
Unknown
Altitude
Unknown
Speed
Unknown
Apparent Right ascension
Unknown
Apparent Declination
Unknown
Sunlit
N/A
Visualization observer readout
Local Sidereal Time
22:36:02
Azimuth
Unknown
Elevation
Unknown
Doppler factor
Unknown
Orbital elements
Apogee altitude
463.816 km
Perigee altitude
462.158 km
Semi-major axis
6,841.124 km
Eccentricity
0.00012
Inclination
53.1615°
RAAN
303.6861°
Arg. of periapsis
87.7868°
True anomaly
272.31352°
Mean anomaly
272.3274°
Eccentric anomaly
272.32046°
Mean motion
3.83577 °/min
Orbital period
93.85 mins
BSTAR
0.000020916
Loading maneuver chart data...
Computing Atmospheric mass density...
Loading historical data...
Loading historical data...
Loading historical data...
Loading historical data...
Loading historical data...
Loading historical data...
Loading historical data...

Documentation

Showing up to 5 results
|